When you browse on this site, cookies collect data to enhance your experience and personalize the content and advertising you see.
Visit our Privacy Policy to learn more. By continuing to use the site, you agree to this use of cookies and data.
  • In Spain
  • List of Countries
  • For 7 days
  • Water Temperature
  • Weather Map
  • Weather Widgets
  • user-avatar
    Login

    Hourly Weather Kuznetsovsk (Varash)

    Today, 6 June, Saturday

    Time Temperature Precipitation Wind Pressure Humidity
    00:00 +16°C° 0.1 mm 3 mps 737 mmHg 93%
    01:00 +16°C° 0.1 mm 3 mps 738 mmHg 93%
    02:00 +16°C° 0 mm 3 mps 738 mmHg 95%
    03:00 +16°C° 0.1 mm 3 mps 738 mmHg 95%
    04:00 +16°C° 0.1 mm 3 mps 738 mmHg 95%
    05:00 +16°C° 0.1 mm 3 mps 738 mmHg 95%
    06:00 +17°C° 0.2 mm 3 mps 739 mmHg 93%
    07:00 +17°C° 0.2 mm 3 mps 740 mmHg 92%
    08:00 +18°C° 0 mm 3 mps 740 mmHg 90%
    09:00 +20°C° 0 mm 3 mps 741 mmHg 80%
    10:00 +21°C° 0 mm 4 mps 741 mmHg 71%
    11:00 +22°C° 0 mm 4 mps 742 mmHg 62%
    12:00 +23°C° 0 mm 4 mps 742 mmHg 60%
    13:00 +23°C° 0 mm 4 mps 742 mmHg 59%
    14:00 +25°C° 0 mm 4 mps 743 mmHg 57%
    15:00 +25°C° 0 mm 4 mps 743 mmHg 58%
    16:00 +25°C° 0 mm 3 mps 742 mmHg 60%
    17:00 +25°C° 0 mm 3 mps 742 mmHg 61%
    18:00 +23°C° 0 mm 2 mps 743 mmHg 67%
    19:00 +21°C° 0 mm 1 mps 743 mmHg 73%
    20:00 +18°C° 0 mm 0 mps 743 mmHg 79%
    21:00 +19°C° 0 mm 1 mps 743 mmHg 81%
    22:00 +18°C° 0 mm 1 mps 743 mmHg 83%
    23:00 +17°C° 0 mm 2 mps 743 mmHg 85%

    Tomorrow, 7 June, Sunday

    Time Temperature Precipitation Wind Pressure Humidity
    00:00 +17°C° 0.1 mm 2 mps 744 mmHg 86%
    01:00 +17°C° 0.1 mm 3 mps 744 mmHg 87%
    02:00 +17°C° 0.1 mm 3 mps 744 mmHg 89%
    03:00 +17°C° 0.2 mm 3 mps 744 mmHg 92%
    04:00 +17°C° 0.2 mm 3 mps 743 mmHg 94%
    05:00 +17°C° 0.2 mm 2 mps 743 mmHg 97%
    06:00 +18°C° 0.9 mm 3 mps 743 mmHg 95%
    07:00 +19°C° 0.9 mm 4 mps 743 mmHg 94%
    08:00 +19°C° 0.9 mm 5 mps 743 mmHg 92%
    09:00 +21°C° 0 mm 5 mps 743 mmHg 85%
    10:00 +23°C° 0 mm 5 mps 743 mmHg 77%
    11:00 +26°C° 0 mm 5 mps 743 mmHg 69%
    12:00 +27°C° 0 mm 5 mps 743 mmHg 66%
    13:00 +27°C° 0 mm 5 mps 743 mmHg 62%
    14:00 +28°C° 0 mm 6 mps 743 mmHg 59%
    15:00 +28°C° 0 mm 5 mps 743 mmHg 62%
    16:00 +27°C° 0 mm 5 mps 742 mmHg 65%
    17:00 +27°C° 0 mm 5 mps 742 mmHg 68%
    18:00 +26°C° 0 mm 5 mps 742 mmHg 73%
    19:00 +25°C° 0 mm 4 mps 742 mmHg 78%
    20:00 +22°C° 0 mm 4 mps 742 mmHg 84%
    21:00 +21°C° 0 mm 4 mps 742 mmHg 85%
    22:00 +21°C° 0 mm 4 mps 742 mmHg 87%
    23:00 +20°C° 0 mm 4 mps 743 mmHg 89%

    Day after tomorrow, 8 June, Monday

    Time Temperature Precipitation Wind Pressure Humidity
    00:00 +19°C° 0 mm 4 mps 743 mmHg 89%
    01:00 +18°C° 0 mm 4 mps 743 mmHg 89%
    02:00 +18°C° 0 mm 4 mps 743 mmHg 89%
    03:00 +18°C° 0 mm 3 mps 743 mmHg 89%
    04:00 +17°C° 0 mm 3 mps 743 mmHg 88%
    05:00 +17°C° 0 mm 3 mps 743 mmHg 87%
    06:00 +19°C° 0 mm 4 mps 743 mmHg 82%
    07:00 +20°C° 0 mm 4 mps 743 mmHg 77%
    08:00 +22°C° 0 mm 4 mps 743 mmHg 72%
    09:00 +25°C° 0 mm 5 mps 744 mmHg 67%
    10:00 +26°C° 0 mm 5 mps 744 mmHg 63%
    11:00 +27°C° 0 mm 5 mps 744 mmHg 58%
    12:00 +28°C° 0 mm 5 mps 744 mmHg 58%
    13:00 +28°C° 0 mm 5 mps 743 mmHg 58%
    14:00 +28°C° 0 mm 6 mps 743 mmHg 58%
    15:00 +28°C° 0 mm 5 mps 743 mmHg 61%
    16:00 +27°C° 0 mm 5 mps 743 mmHg 63%
    17:00 +27°C° 0 mm 4 mps 742 mmHg 66%
    18:00 +26°C° 0.1 mm 4 mps 742 mmHg 72%
    19:00 +24°C° 0.1 mm 3 mps 742 mmHg 79%
    20:00 +22°C° 0.1 mm 3 mps 742 mmHg 85%
    21:00 +21°C° 0.1 mm 3 mps 742 mmHg 88%
    22:00 +20°C° 0.1 mm 3 mps 743 mmHg 91%
    23:00 +19°C° 0.1 mm 3 mps 743 mmHg 94%

    9 June, Tuesday

    Time Temperature Precipitation Wind Pressure Humidity
    00:00 +19°C° 0.4 mm 3 mps 743 mmHg 94%
    01:00 +19°C° 0.4 mm 3 mps 743 mmHg 94%
    02:00 +19°C° 0.4 mm 3 mps 743 mmHg 94%
    03:00 +19°C° 0.1 mm 2 mps 743 mmHg 95%
    04:00 +18°C° 0.1 mm 2 mps 743 mmHg 95%
    05:00 +18°C° 0.1 mm 2 mps 743 mmHg 96%
    06:00 +20°C° 0.1 mm 2 mps 743 mmHg 92%
    07:00 +21°C° 0.1 mm 2 mps 744 mmHg 89%
    08:00 +23°C° 0.1 mm 2 mps 744 mmHg 85%
    09:00 +24°C° 1.2 mm 3 mps 744 mmHg 81%
    10:00 +26°C° 1.2 mm 3 mps 744 mmHg 76%
    11:00 +27°C° 1.2 mm 3 mps 744 mmHg 72%
    12:00 +27°C° 0.6 mm 3 mps 744 mmHg 71%
    13:00 +27°C° 0.6 mm 3 mps 744 mmHg 69%
    14:00 +27°C° 0.6 mm 3 mps 744 mmHg 68%
    15:00 +28°C° 0.1 mm 3 mps 744 mmHg 67%
    16:00 +28°C° 0.1 mm 3 mps 744 mmHg 66%
    17:00 +28°C° 0.1 mm 2 mps 744 mmHg 65%
    18:00 +26°C° 0.4 mm 2 mps 744 mmHg 70%
    19:00 +25°C° 0.4 mm 1 mps 744 mmHg 76%
    20:00 +23°C° 0.4 mm 1 mps 744 mmHg 82%
    21:00 +22°C° 0.1 mm 1 mps 744 mmHg 84%
    22:00 +22°C° 0.1 mm 1 mps 744 mmHg 86%
    23:00 +20°C° 0.1 mm 2 mps 744 mmHg 88%

    10 June, Wednesday

    Time Temperature Precipitation Wind Pressure Humidity
    00:00 +20°C° 0.1 mm 2 mps 744 mmHg 90%
    01:00 +19°C° 0.1 mm 2 mps 744 mmHg 91%
    02:00 +19°C° 0.1 mm 2 mps 744 mmHg 93%
    03:00 +19°C° 0.9 mm 2 mps 744 mmHg 93%
    04:00 +19°C° 0.9 mm 2 mps 744 mmHg 93%
    05:00 +19°C° 0.9 mm 2 mps 744 mmHg 93%
    06:00 +20°C° 0.1 mm 2 mps 744 mmHg 91%
    07:00 +21°C° 0.1 mm 3 mps 744 mmHg 89%
    08:00 +22°C° 0.1 mm 3 mps 744 mmHg 86%
    09:00 +25°C° 0.4 mm 4 mps 744 mmHg 80%
    10:00 +26°C° 0.4 mm 4 mps 744 mmHg 74%
    11:00 +28°C° 0.4 mm 5 mps 743 mmHg 68%
    12:00 +28°C° 0.5 mm 5 mps 743 mmHg 65%
    13:00 +29°C° 0.5 mm 5 mps 743 mmHg 63%
    14:00 +30°C° 0.5 mm 5 mps 743 mmHg 60%
    15:00 +29°C° 0.1 mm 4 mps 743 mmHg 62%
    16:00 +29°C° 0.1 mm 4 mps 742 mmHg 64%
    17:00 +29°C° 0.1 mm 4 mps 742 mmHg 66%
    18:00 +27°C° 0.4 mm 3 mps 742 mmHg 72%
    19:00 +26°C° 0.4 mm 3 mps 742 mmHg 78%
    20:00 +24°C° 0.4 mm 3 mps 742 mmHg 84%
    21:00 +22°C° 0.3 mm 3 mps 742 mmHg 87%
    22:00 +21°C° 0.3 mm 3 mps 742 mmHg 90%
    23:00 +20°C° 0.3 mm 3 mps 742 mmHg 93%

    11 June, Thursday

    Time Temperature Precipitation Wind Pressure Humidity
    00:00 +20°C° 0 mm 3 mps 742 mmHg 94%
    01:00 +20°C° 0 mm 3 mps 742 mmHg 95%
    02:00 +20°C° 0 mm 3 mps 741 mmHg 96%
    03:00 +19°C° 0.1 mm 2 mps 741 mmHg 96%
    04:00 +19°C° 0.1 mm 2 mps 741 mmHg 96%
    05:00 +19°C° 0.1 mm 2 mps 741 mmHg 97%
    06:00 +20°C° 0.3 mm 3 mps 741 mmHg 93%
    07:00 +22°C° 0.3 mm 3 mps 741 mmHg 90%
    08:00 +24°C° 0.3 mm 3 mps 741 mmHg 87%
    09:00 +26°C° 0.5 mm 3 mps 741 mmHg 78%
    10:00 +27°C° 0.5 mm 3 mps 741 mmHg 69%
    11:00 +29°C° 0.5 mm 3 mps 741 mmHg 60%
    12:00 +29°C° 0.2 mm 4 mps 741 mmHg 59%
    13:00 +29°C° 0.2 mm 4 mps 740 mmHg 58%
    14:00 +30°C° 0.2 mm 4 mps 740 mmHg 57%
    15:00 +29°C° 0.1 mm 4 mps 740 mmHg 60%
    16:00 +29°C° 0.1 mm 4 mps 740 mmHg 62%
    17:00 +29°C° 0.1 mm 3 mps 740 mmHg 65%
    18:00 +27°C° 0.2 mm 3 mps 740 mmHg 71%
    19:00 +25°C° 0.2 mm 3 mps 740 mmHg 77%
    20:00 +24°C° 0.2 mm 3 mps 740 mmHg 83%
    21:00 +22°C° 0.1 mm 3 mps 740 mmHg 85%
    22:00 +21°C° 0.1 mm 2 mps 740 mmHg 87%
    23:00 +20°C° 0.1 mm 2 mps 740 mmHg 89%
    Show more